GFSCGP_925_thetae_132.txt.gz
Theta_e
317 316 316 315 316 317 316 316 316 316 315 313 314 315 315 315 316 316 318 316 313 310 306 305 304 303 303 302 302 301 301 301 301 302 303 305 305 309 309 306 305 305 305 307
317 317 316 317 318 317 317 318 316 314 313 314 315 316 316 316 316 316 317 316 314 311 308 306 305 305 304 303 301 301 301 300 300 300 301 301 302 304 304 303 303 302 303 304
314 314 315 318 317 317 316 315 314 314 313 314 316 317 316 316 315 314 313 313 312 312 310 308 306 304 302 300 300 299 299 298 298 299 300 301 302 302 302 301 301 301 301 302
313 312 314 314 313 313 314 313 313 313 315 317 316 314 316 317 316 315 314 313 312 311 309 308 306 304 303 301 300 299 299 298 297 297 298 298 300 300 300 300 299 300 300 300
311 314 314 314 314 313 313 313 314 316 317 317 316 317 316 316 316 316 315 314 312 311 309 308 307 305 303 300 299 298 297 297 295 296 296 297 297 297 297 298 297 298 298 299
310 313 314 313 313 313 314 315 316 316 316 316 315 315 313 317 316 316 315 313 313 311 310 309 306 303 301 299 298 297 297 296 295 295 295 295 295 295 295 295 295 296 296 297
312 313 312 313 314 314 315 316 315 315 319 315 315 315 315 316 315 315 315 314 313 312 311 309 306 303 299 298 297 296 296 296 295 294 293 294 293 293 293 292 293 293 293 294
312 312 314 315 314 314 316 315 316 314 314 314 314 315 314 314 315 315 314 314 313 312 309 307 304 301 299 297 296 295 295 294 293 292 292 291 290 291 291 291 291 291 290 291
314 313 312 313 314 314 316 317 314 316 315 317 314 313 316 317 315 315 314 314 313 312 307 306 302 299 297 296 295 294 293 293 291 291 290 290 289 289 289 289 289 289 288 289
313 310 308 312 313 313 315 314 316 317 316 315 312 313 314 318 317 315 315 314 314 310 305 303 300 297 296 295 294 293 292 291 291 290 289 289 288 288 288 288 287 287 287 287
311 313 309 313 313 311 314 315 315 315 315 317 315 313 314 313 314 316 315 314 314 311 305 300 299 296 295 294 293 292 291 290 290 290 289 289 288 288 287 287 286 286 286 286
306 307 310 309 311 313 313 314 314 319 315 318 318 316 314 314 314 314 314 314 313 310 302 298 296 296 295 294 293 292 291 290 289 289 289 288 287 287 287 286 286 285 286 286
309 307 308 305 309 314 315 314 313 315 316 317 318 317 315 314 314 314 315 314 311 305 300 297 296 295 294 292 291 290 290 289 289 288 288 288 287 286 285 285 285 285 285 285
311 311 310 308 307 310 313 313 313 314 316 315 314 313 312 314 315 315 314 311 307 303 299 298 297 294 292 290 290 288 286 286 286 286 285 285 285 284 284 284 284 284 284 284
309 310 309 309 309 309 310 311 310 311 313 315 314 312 312 311 312 313 312 310 305 301 299 297 294 293 291 290 288 286 285 284 284 284 283 282 283 282 282 282 283 283 284 283
309 309 309 309 308 309 309 309 309 310 311 312 312 313 311 311 310 311 310 306 303 299 296 293 292 292 290 288 286 285 284 283 283 283 282 281 281 281 281 281 282 282 282 282
308 309 308 311 308 310 310 309 309 310 310 311 316 314 312 311 308 308 306 303 301 297 293 292 292 290 288 287 285 284 283 283 282 282 281 281 281 281 281 281 281 282 282 281
307 307 308 311 309 313 308 307 307 310 311 311 312 312 309 307 305 303 303 302 298 295 293 291 289 288 286 286 284 283 282 282 282 281 281 280 280 280 280 280 280 281 281 281
306 308 309 309 307 307 307 310 310 310 309 308 309 309 305 302 300 297 298 298 295 292 290 288 287 286 285 285 284 283 282 282 281 281 281 280 280 280 280 280 280 280 280 280
306 306 308 306 307 307 311 307 305 305 309 307 306 307 302 301 307 306 295 293 290 287 287 286 286 285 285 285 284 283 282 281 280 280 280 280 280 280 280 280 279 279 280 279
309 309 309 311 310 307 307 305 303 309 310 305 305 304 302 303 301 296 292 289 287 286 286 286 285 285 285 285 284 283 282 280 280 280 279 279 280 280 280 280 279 279 279 279
305 308 310 311 312 313 305 303 305 305 302 303 304 302 301 294 291 290 288 287 286 286 286 286 286 285 284 283 283 283 282 281 281 279 279 279 279 280 280 280 280 279 279 279
309 310 311 309 309 305 304 304 302 301 302 302 302 300 299 293 290 289 288 287 287 287 286 286 286 285 284 284 283 282 282 281 281 280 279 279 278 279 279 279 280 280 279 279
307 306 308 308 308 302 303 299 299 299 300 298 298 298 295 292 290 289 288 288 287 286 286 286 285 285 284 284 283 283 282 281 281 280 279 279 278 278 279 279 278 278 278 278
306 305 306 307 303 299 299 300 299 297 296 294 293 294 293 292 290 289 288 287 286 286 285 285 285 285 284 283 283 282 281 281 280 279 279 279 278 278 277 276 277 277 275 276
305 305 306 308 304 304 304 300 297 295 294 293 292 291 291 290 289 288 288 287 286 285 285 285 285 284 283 282 281 281 281 280 280 279 279 278 278 277 277 277 276 274 274 273

GFSCGP_925_thetae_135.txt.gz
Theta_e
319 319 318 318 318 319 319 319 317 317 318 317 318 317 317 317 317 318 318 319 318 315 311 310 310 309 309 307 307 306 306 305 305 306 306 307 307 310 309 308 307 307 307 309
318 320 317 316 318 319 317 317 318 318 317 316 316 317 317 318 318 318 319 320 318 314 312 311 311 310 308 307 306 306 305 304 304 304 305 306 306 306 307 306 306 305 305 306
317 318 315 317 318 318 317 317 317 317 316 316 316 316 318 318 318 318 318 318 317 316 314 312 311 309 308 306 306 305 305 304 303 303 304 305 305 306 305 304 304 304 304 304
314 314 315 315 315 314 315 315 315 315 315 316 319 320 318 319 318 318 318 317 317 316 315 313 311 310 309 307 306 304 303 301 301 301 302 303 303 303 303 303 303 302 303 302
313 314 313 313 314 314 315 315 315 314 316 317 316 317 317 318 318 318 318 318 317 315 314 313 312 310 306 305 303 303 302 301 301 300 300 301 301 300 300 300 300 300 300 300
313 314 314 314 314 313 314 315 316 317 318 319 317 316 316 317 318 316 317 317 317 316 314 313 310 308 305 303 303 302 302 300 300 299 298 299 298 298 298 298 298 298 298 298
313 312 313 313 314 315 315 315 316 316 318 320 318 317 316 316 316 316 317 317 316 315 315 313 312 308 304 303 302 301 300 299 298 298 297 296 296 295 295 295 294 294 294 294
314 315 313 313 314 313 316 315 317 317 317 316 315 317 317 316 317 316 315 316 316 316 315 312 310 307 303 302 301 300 299 298 297 296 296 295 294 293 293 292 292 292 291 291
312 313 314 314 313 313 312 315 314 315 316 316 315 314 314 318 317 317 317 316 317 316 313 311 307 305 303 301 300 299 298 297 296 295 295 294 293 292 291 291 290 290 290 289
313 314 314 313 314 313 313 312 314 318 320 316 314 314 315 319 318 317 317 317 317 316 311 310 306 303 301 300 299 298 297 296 296 295 295 294 292 291 291 290 289 288 288 288
312 313 312 309 311 311 310 314 313 314 313 316 316 315 314 316 316 318 317 316 316 316 311 309 306 302 300 299 298 297 296 295 295 294 294 293 291 290 289 289 288 288 288 288
309 310 309 308 309 311 313 315 314 318 317 315 318 322 315 316 315 314 315 316 315 316 312 307 304 302 300 299 298 297 296 295 293 293 293 292 291 290 289 288 288 287 287 287
310 311 309 307 307 308 309 311 311 310 313 316 318 318 315 314 315 314 314 314 315 315 310 305 302 301 300 297 296 295 293 292 292 292 291 290 289 288 288 287 287 286 286 286
309 307 307 306 306 308 309 312 313 315 318 319 316 316 313 314 315 314 316 314 314 313 307 304 302 300 298 296 294 292 290 289 289 288 287 287 287 286 286 286 286 286 285 285
310 311 309 308 308 308 309 309 309 309 310 313 313 314 313 313 313 312 315 314 313 309 306 304 302 299 297 294 292 290 289 288 288 287 285 285 285 285 284 284 285 285 285 284
307 309 308 307 305 306 307 307 307 308 308 309 310 310 310 311 312 312 313 314 312 309 305 302 299 297 294 291 290 288 287 287 286 285 284 283 283 283 283 283 284 284 283 283
308 309 309 310 308 308 308 308 308 308 308 309 312 310 310 310 313 313 312 313 311 307 302 298 295 293 291 289 288 287 286 285 284 283 283 282 282 282 282 283 283 282 282 282
307 308 308 311 308 310 307 307 308 309 309 309 309 309 311 312 311 310 309 309 307 303 298 295 293 291 289 288 286 285 284 284 284 283 282 282 282 282 282 282 282 282 281 281
305 307 310 310 309 307 306 307 313 312 309 309 309 309 310 309 306 305 304 305 302 297 294 292 290 288 287 286 285 284 284 284 283 282 282 281 282 281 282 282 282 281 281 281
305 306 308 309 308 309 310 306 306 309 313 309 309 309 310 307 310 309 300 298 295 291 289 288 287 287 286 286 285 284 283 282 282 282 282 282 282 282 281 281 281 281 281 281
310 310 311 311 310 308 306 306 307 309 310 308 307 308 309 308 303 299 296 292 290 289 288 287 286 286 286 286 285 283 282 282 281 281 281 281 282 281 282 282 281 281 282 281
304 307 310 310 311 311 307 307 309 309 306 306 306 306 305 297 295 293 291 290 289 288 288 287 287 286 285 285 284 283 282 281 281 280 281 281 281 281 282 282 282 281 281 281
308 308 310 307 309 310 308 308 308 305 306 305 306 304 299 294 293 291 290 289 289 288 289 288 287 286 286 285 284 284 283 283 282 281 280 280 281 281 281 281 281 281 281 281
307 306 310 308 308 308 309 306 303 302 304 304 304 303 297 294 292 291 290 289 289 289 289 288 286 287 287 286 285 283 283 282 282 281 281 280 280 280 280 280 279 278 279 279
307 307 309 309 307 307 306 306 304 301 302 300 300 300 295 293 292 291 290 290 289 288 288 287 287 287 286 286 285 284 283 283 282 281 281 280 280 280 278 277 277 277 275 275
306 308 309 310 307 309 308 306 304 303 299 298 297 296 295 293 291 291 290 289 288 287 287 287 287 287 285 285 284 283 283 282 281 281 281 280 280 280 280 279 276 274 273 273

GFSCGP_925_thetae_138.txt.gz
Theta_e
318 318 318 318 319 318 319 319 320 319 318 318 319 318 318 318 318 318 318 318 320 317 313 313 312 311 310 309 308 308 307 306 306 307 307 308 308 307 308 306 306 305 306 306
317 319 319 318 317 318 320 320 318 317 318 319 318 318 317 317 318 318 318 320 320 315 313 312 312 311 309 309 308 307 306 305 305 305 306 306 307 307 306 306 305 304 305 304
317 317 318 317 318 318 320 318 318 317 317 317 317 317 317 317 318 318 319 318 319 316 314 313 312 311 310 309 307 305 303 302 303 303 303 304 305 305 304 304 304 302 303 302
316 316 315 317 316 316 317 315 315 316 316 317 316 317 317 317 319 319 318 318 319 317 315 314 312 312 309 307 305 304 303 303 302 301 302 302 302 302 302 302 300 301 300 301
315 314 315 315 315 316 315 315 316 316 316 315 314 315 316 317 318 319 318 318 318 317 316 314 313 310 307 305 304 304 302 302 301 300 300 300 299 300 299 298 298 297 297 297
313 312 314 314 315 314 315 314 314 315 316 319 316 317 317 317 318 320 318 318 318 317 315 314 312 309 306 305 304 303 302 301 300 299 299 298 297 297 297 295 295 294 294 293
310 311 314 314 314 314 314 314 314 315 318 321 317 317 318 318 317 319 318 318 318 317 315 314 312 309 306 304 303 302 301 300 299 298 297 297 296 295 294 293 293 292 292 291
314 315 313 313 312 313 315 316 319 318 320 316 315 316 316 317 317 317 318 318 318 317 316 315 312 309 305 303 302 301 300 299 298 297 297 295 294 294 293 292 291 290 290 290
313 314 314 314 314 313 312 314 313 317 316 317 315 314 315 317 317 319 317 317 318 317 316 314 311 307 304 302 301 300 299 298 298 297 296 295 293 292 292 290 290 289 289 289
314 314 314 314 314 313 313 313 315 318 319 319 315 315 316 320 319 318 318 317 317 317 315 313 309 305 303 302 300 299 298 298 297 296 295 294 292 291 290 290 289 288 288 288
312 314 314 314 314 313 312 314 313 314 315 317 316 314 318 318 317 318 318 317 318 318 314 312 308 304 303 301 300 298 297 297 296 295 294 293 292 291 289 289 288 288 287 287
310 311 313 312 312 311 311 312 314 319 318 319 319 319 316 318 317 315 316 317 317 316 314 310 306 303 302 301 300 299 297 295 295 294 294 292 291 290 289 288 287 287 286 286
312 311 309 307 307 307 308 309 310 312 315 316 316 314 313 314 316 315 315 314 315 316 313 310 305 303 302 300 298 297 295 294 293 292 291 289 289 288 288 287 287 286 286 285
309 310 308 310 308 307 307 307 309 312 317 317 316 315 315 316 315 316 315 315 316 315 311 307 305 303 300 298 296 293 291 291 290 289 289 288 287 286 286 286 286 286 285 283
308 308 305 305 305 305 306 307 308 309 311 315 313 311 312 311 312 314 314 314 315 313 308 306 304 302 298 296 293 291 290 289 288 287 286 286 285 285 285 285 285 284 284 282
310 310 308 307 307 306 306 305 306 306 307 308 308 308 310 310 310 313 313 313 316 313 308 305 302 300 298 294 291 290 289 288 287 285 283 284 283 283 283 283 283 283 282 282
310 310 309 309 307 308 310 309 308 307 307 308 309 311 310 310 313 313 313 313 315 309 306 303 300 296 293 290 289 288 287 286 285 284 283 283 282 282 282 283 282 282 281 281
306 308 309 310 310 312 309 307 306 306 307 308 309 309 309 310 312 312 311 313 312 306 302 298 295 292 290 289 287 287 286 285 284 283 282 282 282 282 282 282 282 282 282 281
306 307 309 309 309 307 307 307 309 309 309 308 308 309 309 310 309 307 305 302 301 297 295 293 292 290 288 286 286 285 285 284 283 282 282 282 282 282 282 282 281 282 281 282
305 307 307 308 308 309 308 306 306 307 310 308 309 310 310 311 312 308 301 296 293 292 291 289 289 288 286 286 285 284 283 282 282 282 282 282 282 281 282 282 281 282 282 281
306 307 308 308 309 308 307 307 307 309 310 309 307 309 311 310 303 298 294 293 291 290 289 288 287 287 286 286 285 283 282 282 281 281 282 282 282 282 282 281 281 282 282 282
305 306 310 310 311 311 308 309 309 310 309 308 308 308 302 298 295 293 292 291 290 289 289 288 287 286 286 286 284 283 281 281 281 281 281 281 282 282 282 282 282 282 282 281
308 307 308 307 308 311 310 309 307 309 308 307 307 303 298 295 294 292 291 290 290 289 288 288 287 286 286 285 284 283 282 282 281 281 281 282 282 281 280 280 279 279 280 280
307 307 309 309 308 307 309 309 307 305 305 305 305 300 296 295 293 292 290 290 289 289 289 288 287 287 287 286 285 284 283 283 282 282 281 281 280 280 280 278 276 276 276 276
305 306 308 309 309 308 305 308 308 306 303 303 303 299 295 293 292 291 290 290 290 290 290 288 288 288 287 286 285 284 284 283 282 281 281 281 280 278 277 277 276 274 274 274
304 306 308 309 308 308 308 307 305 305 304 301 299 296 295 293 292 291 290 290 290 290 288 288 288 288 287 286 285 284 284 283 282 282 282 281 281 280 278 277 275 274 274 273

GFSCGP_925_thetae_141.txt.gz
Theta_e
314 314 314 315 314 316 317 316 316 316 316 318 316 315 314 312 314 312 311 317 313 312 311 311 310 309 309 308 307 305 304 304 305 306 306 306 307 305 305 305 304 303 303 303
314 316 317 317 317 317 317 318 317 316 315 315 313 313 313 314 313 312 312 315 312 311 311 311 310 309 308 307 306 303 302 302 303 303 304 304 304 302 302 302 301 301 300 300
316 316 317 318 317 317 316 318 318 317 315 313 313 313 314 314 314 313 316 314 312 311 311 311 309 309 308 307 304 303 302 302 301 302 301 301 301 301 300 299 298 298 298 296
314 315 316 316 316 315 315 316 316 315 315 314 313 314 313 312 314 316 315 314 312 311 311 310 309 308 307 305 304 302 302 301 300 300 299 299 299 298 297 296 296 295 294 293
314 314 313 313 314 315 315 315 315 315 314 312 313 311 312 312 313 316 314 315 313 311 311 310 308 307 306 304 303 302 301 300 299 298 298 297 296 296 295 294 293 292 292 291
309 311 311 313 314 314 314 314 313 313 312 314 312 311 312 312 313 316 316 315 314 312 310 309 306 305 304 304 303 301 300 299 298 297 296 295 295 294 293 292 291 290 290 290
308 307 309 312 313 313 313 312 312 312 315 316 315 315 315 315 318 318 317 315 314 312 311 308 305 303 304 303 302 300 299 298 297 296 295 294 293 292 291 290 289 289 289 289
308 311 308 310 312 313 312 311 313 318 316 316 314 314 312 314 315 317 316 315 314 312 311 309 306 303 303 302 301 300 299 298 297 296 294 293 292 291 290 289 289 289 288 288
315 313 312 312 312 311 311 313 313 316 316 316 314 313 312 318 318 318 318 316 314 312 311 309 304 303 302 301 300 299 298 297 296 295 294 292 291 290 289 289 289 288 287 288
315 315 314 313 312 311 311 312 313 313 318 319 315 313 313 318 318 319 318 317 318 316 312 307 304 302 301 301 299 298 298 297 296 295 293 292 291 290 289 288 288 287 287 287
311 312 313 315 315 315 314 313 313 313 314 316 315 311 316 316 316 316 314 316 317 316 314 308 303 301 300 300 299 298 297 296 295 294 293 291 290 289 288 288 287 286 286 286
311 310 310 311 309 312 313 310 312 315 316 315 315 315 313 316 315 315 314 314 315 316 313 306 304 301 300 299 298 297 296 295 294 293 291 290 289 288 287 287 286 285 284 284
310 310 308 309 308 307 307 307 308 310 313 314 316 313 311 313 314 315 314 313 313 315 311 307 303 302 301 299 298 296 295 293 291 290 289 288 287 287 287 286 285 284 283 283
308 310 309 308 308 306 306 305 305 306 309 310 311 313 312 311 312 314 314 312 311 314 311 305 303 302 299 297 294 292 291 290 289 288 287 286 286 286 286 285 284 283 281 281
307 307 306 306 305 304 305 305 306 306 307 309 308 308 310 307 306 306 310 314 314 312 308 305 303 301 298 294 291 290 289 288 288 287 286 285 284 284 284 284 283 282 280 279
308 306 308 308 306 306 306 306 305 305 305 305 304 305 305 307 310 312 312 315 313 309 306 303 303 299 294 291 290 289 288 287 286 283 284 283 283 283 283 282 281 280 279 278
310 310 309 309 308 309 308 307 307 307 307 307 306 305 307 306 311 311 310 313 312 308 306 305 300 295 291 289 289 288 286 286 284 283 283 282 282 282 282 281 281 280 279 278
307 307 309 310 307 307 305 307 307 307 306 305 305 305 305 307 306 302 301 306 310 307 301 294 291 289 289 288 287 286 286 283 282 283 282 282 282 282 282 282 282 282 280 278
305 305 304 306 305 305 305 305 304 304 304 305 305 305 308 306 304 300 297 294 298 295 292 290 289 288 287 287 286 285 284 283 282 282 281 282 281 282 281 281 281 281 281 279
302 302 303 302 304 300 303 305 305 306 305 307 307 309 308 307 303 303 295 293 292 290 290 288 287 287 286 285 285 284 283 282 282 282 281 281 281 281 281 281 282 282 281 280
302 302 303 304 305 304 304 305 305 307 304 307 306 307 307 302 300 297 292 291 290 289 288 287 287 286 285 285 284 283 282 282 282 282 282 282 282 281 281 281 282 282 281 280
303 304 303 305 308 308 307 307 308 305 307 307 306 305 300 297 294 293 291 290 289 289 288 287 286 286 285 284 283 282 281 281 281 282 282 282 282 282 282 282 281 281 280 278
302 303 302 305 303 304 306 305 304 306 306 306 305 299 297 295 293 292 290 290 289 289 288 287 286 286 285 284 283 281 281 281 281 281 281 281 280 280 280 280 279 278 277 277
305 303 304 305 305 306 306 305 305 304 305 302 300 296 295 294 292 291 290 289 289 288 287 287 286 286 285 284 283 281 281 281 281 281 281 281 281 278 276 275 275 275 275 274
302 304 305 303 303 304 306 306 304 305 303 300 297 295 293 293 292 290 290 289 289 288 288 287 286 286 286 285 284 283 283 282 282 281 280 280 279 278 276 275 274 274 274 273
300 301 302 302 305 305 306 305 304 303 301 298 295 294 293 292 291 290 289 289 290 290 288 287 287 287 287 285 284 284 283 282 281 281 280 279 278 277 276 275 275 275 274 274